Location: Bow
(51.5261°N, 0.0167°W)
Time: 12:20:42
(UTC+00:00)

ISS - Pass Details

Date: 02 July 2021
Orbit: 419 x 421 km, 51.6° (Epoch: 31 July)

Event Time Altitude Azimuth Distance (km) Brightness Sun altitude
Exits shadow 01:29:38 10° 145° (SE) 1,490 -1.3 -13.1°
Maximum altitude 01:30:07 10° 136° (SE) 1,476 -1.2 -13.1°
Drops below altitude 10° 01:30:45 10° 126° (SE) 1,500 -1.1 -13.1°
Sets 01:34:28 0° 83° (E) 2,369 0.5 -12.8°
